Weather History for Sault Ste Marie, MI

Change the Weather History Date:

Sunday, January 19, 2014

  Actual Average Record
Temperature  
Mean Temperature 14 °F 15 °F  
Max Temperature 23 °F 23 °F 42 °F (1996)
Min Temperature 5 °F 7 °F -27 °F (1984)
Degree Days  
Heating Degree Days 51 50  
Month to date heating degree days 961 938  
Since 1 July heating degree days 4476 4197  
Moisture  
Dew Point 11 °F    
Average Humidity 73    
Maximum Humidity 88    
Minimum Humidity 58    
Precipitation  
Precipitation 0.10 in 0.06 in 0.66 in (1949)
Month to date precipitation 1.29 1.42  
Year to date precipitation 1.29 1.42  
Snow  
Snow 1.90 in 1.00 in 9.80 in (1949)
Month to date snowfall 17.4 19.9  
Since 1 July snowfall 72.1 70.1  
Snow Depth 19.00 in    
Sea Level Pressure  
Sea Level Pressure 29.38 in    
Wind  
Wind Speed 12 mph (WNW)    
Max Wind Speed 23 mph    
Max Gust Speed 32 mph    
Visibility 5 miles    
Events Fog , Snow    
T = Trace of Precipitation, MM = Missing Value Source: NWS Daily Summary

Daily Weather History Graph

Daily Weather History Graph

Search for Another Location

Airport:

Trip Planner

Search our weather history database for the weather conditions in past years. The results will help you decide how hot, cold, wet, or windy it might be!

Date:

Astronomy

Jan. 19, 2014 Rise Set
Actual Time 8:14 AM EST 5:22 PM EST
Civil Twilight 7:40 AM EST 5:56 PM EST
Nautical Twilight 7:03 AM EST 6:33 PM EST
Astronomical Twilight 6:27 AM EST 7:09 PM EST
Moon 9:15 PM EST (1/19) 9:29 AM EST (1/19)
Length of Visible Light 10h 15m
Length of Day
9h 08m
Waning Gibbous, 89% of the Moon is Illuminated
Jan 19
Waning Gibbous
Jan 24
Last Quarter
Jan 30
New
Feb 6
First Quarter
Feb 14
Full

Hourly Weather History & Observations

Time (EST) Temp. Windchill Dew Point Humidity Pressure Visibility Wind Dir Wind Speed Gust Speed Precip Events Conditions
12:18 AM 14.0 °F 6.5 °F 10.0 °F 84% 29.58 in 10.0 mi SSW 4.6 mph - N/A   Mostly Cloudy
12:55 AM 12.9 °F 2.6 °F 9.0 °F 84% 29.59 in 10.0 mi SSW 6.9 mph - N/A   Mostly Cloudy
1:55 AM 14.0 °F 2.0 °F 10.0 °F 84% 29.53 in 10.0 mi SSW 9.2 mph - N/A   Mostly Cloudy
2:55 AM 17.1 °F 5.8 °F 12.0 °F 81% 29.48 in 10.0 mi SSW 9.2 mph - N/A   Overcast
3:55 AM 19.9 °F 7.9 °F 14.0 °F 78% 29.42 in 10.0 mi SW 11.5 mph - N/A   Overcast
4:50 AM 21.2 °F 6.0 °F 15.8 °F 80% 29.33 in 2.0 mi SW 19.6 mph 25.3 mph 0.00 in Snow Light Snow
4:55 AM 21.0 °F 7.1 °F 16.0 °F 81% 29.37 in 1.8 mi SW 16.1 mph 25.3 mph 0.00 in Snow Light Snow
5:43 AM 21.0 °F 8.1 °F 17.1 °F 85% 29.31 in 2.5 mi SW 13.8 mph 19.6 mph 0.01 in Snow Light Snow
5:51 AM 21.2 °F 8.9 °F 17.6 °F 86% 29.31 in 3.0 mi SW 12.7 mph - 0.01 in Snow Light Snow
5:55 AM 21.0 °F 9.9 °F 17.1 °F 85% 29.34 in 4.0 mi SW 10.4 mph - 0.01 in Snow Light Snow
6:33 AM 21.9 °F 9.2 °F 17.1 °F 82% 29.28 in 2.0 mi WSW 13.8 mph 23.0 mph 0.01 in Snow Light Snow
6:55 AM 21.0 °F 9.3 °F 17.1 °F 85% 29.31 in 2.5 mi WSW 11.5 mph 20.7 mph 0.01 in Snow Light Snow
7:11 AM 21.0 °F 7.6 °F 16.0 °F 81% 29.27 in 1.8 mi WSW 15.0 mph - 0.00 in Snow Light Snow
7:21 AM 19.9 °F 6.7 °F 16.0 °F 85% 29.27 in 2.5 mi WSW 13.8 mph 21.9 mph 0.00 in Snow Light Snow
7:28 AM 19.9 °F 5.7 °F 16.0 °F 85% 29.26 in 4.0 mi WSW 16.1 mph 23.0 mph 0.00 in Snow Light Snow
7:47 AM 19.9 °F 5.7 °F 16.0 °F 85% 29.26 in 6.0 mi WSW 16.1 mph 24.2 mph 0.01 in Snow Light Snow
7:55 AM 19.9 °F 6.2 °F 15.1 °F 81% 29.30 in 9.0 mi WSW 15.0 mph - 0.01 in Snow Light Snow
8:16 AM 19.9 °F 7.3 °F 15.1 °F 81% 29.25 in 10.0 mi WSW 12.7 mph - 0.00 in   Overcast
8:55 AM 21.0 °F 7.6 °F 15.1 °F 78% 29.28 in 10.0 mi WSW 15.0 mph 21.9 mph 0.00 in   Overcast
9:03 AM 21.0 °F 9.3 °F 15.1 °F 78% 29.24 in 7.0 mi WSW 11.5 mph 20.7 mph 0.00 in Snow Light Snow
9:12 AM 21.0 °F 8.6 °F 16.0 °F 81% 29.25 in 1.8 mi WSW 12.7 mph - 0.00 in Snow Light Snow
9:31 AM 21.0 °F 9.3 °F 17.1 °F 85% 29.25 in 1.2 mi WSW 11.5 mph - 0.00 in Snow Light Snow
9:53 AM 21.2 °F 6.8 °F 17.6 °F 86% 29.25 in 0.8 mi West 17.3 mph 25.3 mph 0.00 in Snow Light Snow
9:55 AM 21.9 °F 7.3 °F 18.0 °F 85% 29.29 in 0.8 mi West 18.4 mph 25.3 mph 0.00 in Snow Light Snow
10:26 AM 21.9 °F 7.3 °F 19.0 °F 89% 29.26 in 0.5 mi West 18.4 mph 24.2 mph 0.01 in Fog , Snow Snow
10:55 AM 23.0 °F 10.6 °F 19.0 °F 85% 29.30 in 0.5 mi West 13.8 mph 23.0 mph 0.02 in Fog , Snow Snow
11:55 AM 21.9 °F 8.7 °F 18.0 °F 85% 29.33 in 0.5 mi NW 15.0 mph 23.0 mph 0.04 in Fog , Snow Snow
12:03 PM 21.9 °F 8.7 °F 17.1 °F 82% 29.30 in 1.0 mi NW 15.0 mph 24.2 mph 0.00 in Snow Light Snow
12:29 PM 21.0 °F 9.9 °F 14.0 °F 74% 29.30 in 3.0 mi NNW 10.4 mph - 0.00 in Snow Light Snow
12:55 PM 19.9 °F 4.3 °F 10.9 °F 68% 29.34 in 3.0 mi NW 19.6 mph 29.9 mph 0.01 in Snow Light Snow
12:58 PM 19.0 °F 3.6 °F 10.9 °F 71% 29.31 in 2.5 mi NW 18.4 mph 29.9 mph 0.00 in Snow Light Snow
1:09 PM 19.0 °F 4.0 °F 10.9 °F 71% 29.32 in 3.0 mi NW 17.3 mph 26.5 mph 0.00 in Snow Light Snow
1:24 PM 19.0 °F 4.5 °F 12.0 °F 74% 29.33 in 2.5 mi NW 16.1 mph 23.0 mph 0.00 in Snow Light Snow
1:31 PM 19.0 °F 4.5 °F 10.9 °F 71% 29.33 in 3.0 mi NW 16.1 mph 26.5 mph 0.00 in Snow Light Snow
1:45 PM 19.0 °F 5.0 °F 10.9 °F 71% 29.34 in 2.5 mi NNW 15.0 mph 24.2 mph 0.00 in Snow Light Snow
1:55 PM 18.0 °F 3.6 °F 10.9 °F 74% 29.37 in 1.8 mi NW 15.0 mph 23.0 mph 0.00 in Snow Light Snow
2:02 PM 18.0 °F 4.8 °F 10.9 °F 74% 29.34 in 1.8 mi NNW 12.7 mph 21.9 mph 0.00 in Snow Light Snow
2:08 PM 18.0 °F 2.6 °F 10.9 °F 74% 29.34 in 2.0 mi NW 17.3 mph 24.2 mph 0.00 in Snow Light Snow
2:21 PM 18.0 °F 1.7 °F 9.0 °F 68% 29.35 in 3.0 mi NW 19.6 mph 26.5 mph 0.00 in Snow Light Snow
2:55 PM 18.0 °F 3.6 °F 9.0 °F 68% 29.39 in 6.0 mi NW 15.0 mph 23.0 mph 0.00 in Snow Light Snow
3:55 PM 17.1 °F 2.0 °F 8.1 °F 68% 29.43 in 4.0 mi NW 16.1 mph 26.5 mph 0.00 in Snow Light Snow
4:55 PM 16.0 °F 1.1 °F 6.1 °F 65% 29.46 in 7.0 mi WNW 15.0 mph 26.5 mph 0.00 in   Overcast
5:55 PM 15.1 °F 1.8 °F 3.0 °F 59% 29.47 in 10.0 mi NW 11.5 mph - 0.00 in   Overcast
6:55 PM 12.9 °F 2.6 °F 3.0 °F 65% 29.51 in 10.0 mi NW 6.9 mph - N/A   Overcast
7:36 PM 12.0 °F -2.0 °F 1.0 °F 61% 29.49 in 10.0 mi NNW 11.5 mph - N/A   Overcast
7:47 PM 12.0 °F -0.4 °F 1.0 °F 61% 29.49 in 10.0 mi NNW 9.2 mph - N/A   Overcast
7:55 PM 12.0 °F -0.4 °F 1.0 °F 61% 29.53 in 10.0 mi NNW 9.2 mph - N/A   Overcast
8:55 PM 10.9 °F 1.4 °F -2.0 °F 56% 29.55 in 10.0 mi NNW 5.8 mph - N/A   Overcast
9:55 PM 8.1 °F 1.4 °F -2.9 °F 61% 29.56 in 10.0 mi NNW 3.5 mph - N/A   Partly Cloudy
10:55 PM 6.1 °F -5.6 °F -4.0 °F 63% 29.59 in 10.0 mi NNE 6.9 mph - N/A   Clear
11:55 PM 5.0 °F -5.6 °F -4.0 °F 66% 29.62 in 10.0 mi NNE 5.8 mph - N/A   Overcast